, LA

(GMT )
Salt Point

Weather History for KP92 - October, 2012

Change the Weather History Date:

Monday, October 15, 2012

  Actual Average Record
Temperature  
Mean Temperature 76 °F -  
Max Temperature 84 °F - - ()
Min Temperature 68 °F - - ()
Cooling Degree Days 11    
Growing Degree Days 26 (Base 50)    
Moisture  
Dew Point 67 °F    
Average Humidity 72    
Maximum Humidity 91    
Minimum Humidity 49    
Precipitation  
Precipitation 0.16 in - - ()
Sea Level Pressure  
Sea Level Pressure 29.98 in    
Wind  
Wind Speed 3 mph (NNW)    
Max Wind Speed 7 mph    
Max Gust Speed -    
T = Trace of Precipitation, MM = Missing Value Source: NWS Daily Summary

Daily Weather History Graph

Daily Weather History Graph

Search for Another Location

Airport or City:

Trip Planner

Search our weather history database for the weather conditions in past years. The results will help you decide how hot, cold, wet, or windy it might be!

Date:

Astronomy

Oct. 15, 2012 Rise Set
Actual Time 7:07 AM CDT 6:34 PM CDT
Civil Twilight 6:43 AM CDT 6:58 PM CDT
Nautical Twilight 6:15 AM CDT 7:25 PM CDT
Astronomical Twilight 5:47 AM CDT 7:53 PM CDT
Moon 7:13 AM CDT (10/15) 6:40 PM CDT (10/15)
Length of Visible Light 12h 15m
Length of Day
11h 27m
New Moon, 0% of the Moon is Illuminated
Oct 15
New Moon
Oct 21
First Quarter
Oct 29
Full
Nov 6
Last Quarter
Nov 13
New

Hourly Weather History & Observations

Time (CDT) Temp. Heat Index Dew Point Humidity Pressure Visibility Wind Dir Wind Speed Gust Speed Precip Events Conditions
12:53 AM 79.0 °F - 73.9 °F 84% 30.01 in - Variable 4.6 mph - N/A   Unknown
1:53 AM 79.0 °F - 73.9 °F 84% 30.00 in - SW 3.5 mph - N/A   Unknown
2:53 AM 79.0 °F - 73.0 °F 82% 29.99 in - WSW 3.5 mph - N/A   Unknown
3:53 AM 79.0 °F - 73.0 °F 82% 29.98 in - West 3.5 mph - N/A   Unknown
4:53 AM 79.0 °F - 73.9 °F 84% 29.98 in - West 4.6 mph - N/A   Unknown
5:53 AM 79.0 °F - 75.0 °F 88% 29.99 in - Calm Calm - N/A   Unknown
6:53 AM 73.0 °F - 70.0 °F 90% 29.99 in - Calm Calm - 0.16 in   Unknown
7:53 AM 72.0 °F - 69.1 °F 91% 30.00 in - Calm Calm - N/A   Unknown
8:53 AM 73.9 °F - 69.1 °F 85% 30.02 in - Variable 3.5 mph - N/A   Unknown
9:53 AM 75.9 °F - 68.0 °F 76% 30.02 in - Variable 3.5 mph - N/A   Unknown
10:53 AM 78.1 °F - 66.9 °F 68% 30.02 in - North 6.9 mph - N/A   Unknown
11:53 AM 80.1 °F 82.1 °F 66.0 °F 62% 30.00 in - NNE 5.8 mph - N/A   Unknown
12:53 PM 82.0 °F 84.1 °F 66.0 °F 58% 29.98 in - Variable 4.6 mph - N/A   Unknown
1:53 PM 82.0 °F 83.8 °F 64.9 °F 56% 29.96 in - North 4.6 mph - N/A   Unknown
2:53 PM 82.9 °F 84.4 °F 64.0 °F 53% 29.93 in - Variable 3.5 mph - N/A   Unknown
3:53 PM 82.0 °F 82.7 °F 61.0 °F 49% 29.94 in - NNW 5.8 mph - N/A   Unknown
4:53 PM 81.0 °F 81.7 °F 61.0 °F 50% 29.93 in - North 5.8 mph - N/A   Unknown
5:53 PM 78.1 °F - 63.0 °F 60% 29.92 in - Calm Calm - N/A   Unknown
6:53 PM 75.0 °F - 62.1 °F 64% 29.93 in - Calm Calm - N/A   Unknown
7:53 PM 73.0 °F - 62.1 °F 68% 29.95 in - North 3.5 mph - N/A   Unknown
8:53 PM 72.0 °F - 63.0 °F 73% 29.97 in - North 3.5 mph - N/A   Unknown
9:53 PM 71.1 °F - 61.0 °F 70% 29.98 in - North 3.5 mph - N/A   Unknown
10:53 PM 70.0 °F - 61.0 °F 73% 29.99 in - Calm Calm - N/A   Unknown
11:53 PM 68.0 °F - 61.0 °F 78% 29.98 in - Calm Calm - N/A   Unknown